This demonstration page uses our WeatherBlox Daily Observations layout. Learn more.

Left ArrowRight Arrow

34.16533, -84.80231

Hourly Observations for August 4, 2018

Temp ( °F °C ) Dew Point ( °F °C ) Humidity (%) Winds ( mph kmh ) Pressure ( in mb ) Visibility ( mi km ) Precip ( " mm )
12:53 am 00:53 Clear 70 21.1 70 21.1 100 100 Calm 30.11 1020 10 16 0.00 0.00
1:53 am 01:53 Clear 70 21.1 70 21.1 100 100 Calm 30.10 1019 10 16 0.00 0.00
2:53 am 02:53 Clear 69 20.6 69 20.6 100 100 Calm 30.09 1019 10 16 0.00 0.00
3:53 am 03:53 Clear 68 20 68 20 100 100 Calm 30.09 1019 9 14 0.00 0.00
4:53 am 04:53 Clear 69 20.6 69 20.6 100 100 Calm 30.10 1019 9 14 0.00 0.00
5:53 am 05:53 Clear 68 20 68 20 100 100 Calm 30.11 1020 8 13 0.00 0.00
6:53 am 06:53 Sunny 68 20 68 20 100 100 Calm 30.14 1021 7 11 0.00 0.00
7:53 am 07:53 Sunny 71 21.7 71 21.7 100 100 SE 3 6 30.16 1022 9 14 0.00 0.00
8:53 am 08:53 Sunny 74 23.3 72 22.2 94 94 E 3 6 30.17 1022 10 16 0.00 0.00
9:53 am 09:53 Sunny 78 25.6 73 22.8 85 85 Calm 30.19 1022 10 16 0.00 0.00
10:53 am 10:53 Sunny 83 28.3 73 22.8 72 72 Calm 30.18 1022 10 16 0.00 0.00
11:36 am 11:36 Mostly Cloudy 84 28.9 73 22.8 70 70 Calm 30.15 1021 10 16 0.00 0.00
11:44 am 11:44 Partly Cloudy 83 28.3 72 22.2 70 70 VRB 5 7 30.15 1021 10 16 0.00 0.00
11:53 am 11:53 Mostly Sunny 85 29.4 71 21.7 63 63 Calm 30.18 1022 10 16 0.00 0.00
12:53 pm 12:53 Mostly Sunny 85 29.4 70 21.1 61 61 S 5 7 30.17 1022 10 16 0.00 0.00
1:53 pm 13:53 Mostly Cloudy 86 30 71 21.7 61 61 SW 3 6 30.15 1021 10 16 0.00 0.00
2:53 pm 14:53 Sunny 88 31.1 69 20.6 54 54 VRB 3 6 30.13 1020 10 16 0.00 0.00
3:53 pm 15:53 Partly Cloudy 88 31.1 70 21.1 55 55 N 3 6 30.12 1020 10 16 0.00 0.00
4:53 pm 16:53 Sunny 89 31.7 72 22.2 57 57 Calm 30.10 1019 10 16 0.00 0.00
5:53 pm 17:53 Mostly Sunny 86 30 73 22.8 65 65 Calm 30.11 1020 10 16 0.00 0.00
6:53 pm 18:53 Sunny with Nearby Thunderstorms 83 28.3 78 25.6 85 85 Calm 30.11 1020 10 16 0.00 0.00
7:03 pm 19:03 Partly Cloudy with Thunderstorms 82 27.8 78 25.6 88 88 Calm 30.09 1019 10 16 0.00 0.00
7:21 pm 19:21 Mostly Cloudy with Nearby Thunderstorms 81 27.2 71 21.7 72 72 ESE 7 11 30.09 1019 10 16 0.00 0.00
7:51 pm 19:51 Mostly Cloudy 79 26 70 21 74 74 SE 8 13 30.12 1020 10 16 0.00 0.00
7:53 pm 19:53 Mostly Cloudy 77 25 71 21.7 82 82 ESE 5 7 30.14 1021 10 16 0.00 0.00
8:53 pm 20:53 Clear 74 23.3 71 21.7 91 91 ENE 3 6 30.13 1020 10 16 0.00 0.00
9:53 pm 21:53 Clear 73 22.8 72 22.2 96 96 Calm 30.14 1021 10 16 0.00 0.00
10:53 pm 22:53 Clear 73 22.8 72 22.2 96 96 Calm 30.15 1021 10 16 0.00 0.00
11:53 pm 23:53 Clear 72 22.2 72 22.2 100 100 SSE 3 6 30.16 1022 10 16 0.00 0.00

Powered by AerisWeather